Location: Little Bennett Regional Park
(39.2840°N, 77.2890°W)
Time: 15:18:02
(UTC-04:00)

Daily predictions for brighter satellites

Satellite Brightness Start Highest point End
(mag) Time Altitude Azimuth Time Altitude Azimuth Time Altitude Azimuth
Cosmos 2058 Rocket 4.1 19:25:31 10° SE 19:29:02 25° E 19:32:35 10° NE
Cosmos 1606 Rocket 3.9 19:25:52 10° SSE 19:29:59 43° E 19:34:06 10° NNE
Cosmos 1953 Rocket 4.2 19:27:44 10° NNE 19:31:41 34° ENE 19:35:37 10° SE
Cosmos 332 Rocket 3.8 19:28:29 10° SSW 19:33:23 83° ESE 19:38:16 10° NNE
Geosat 4.0 19:28:53 10° SE 19:33:51 65° ENE 19:38:50 10° NNW
ATLAS CENTAUR R/B 4.4 19:19:38 10° NW 19:36:21 51° NNE 19:41:59 10° ESE
Cosmos 389 Rocket 2.5 19:35:16 10° S 19:38:43 54° E 19:42:08 10° NNE
Cosmos 371 Rocket 3.3 19:34:24 10° SSW 19:39:15 79° ESE 19:44:09 10° NNE
Meteor 1-15 Rocket 4.4 19:33:46 10° S 19:39:40 88° ESE 19:45:33 10° N
Cosmos 1707 3.2 19:41:42 10° N 19:45:24 38° ENE 19:49:05 10° SSE
FENGYUN 3A 3.6 19:40:05 10° SSE 19:45:25 78° ENE 19:50:48 10° N
Cosmos 2369 Rocket 2.6 19:41:38 10° NNW 19:47:16 70° WSW 19:52:49 10° SSE
Cosmos 1656 Rocket 4.5 19:44:07 10° N 19:49:09 32° ENE 19:54:04 10° ESE
Cosmos 1825 Rocket 3.5 19:47:04 10° N 19:51:30 84° E 19:55:56 10° S
Cosmos 2298 Rocket 4.2 19:46:43 10° N 19:51:58 56° ENE 19:57:12 10° SSE
Cosmos 468 Rocket 4.1 19:47:40 10° SSW 19:52:52 85° WNW 19:58:09 10° NNE
Cosmos 841 Rocket 3.9 19:49:22 10° S 19:54:08 40° ESE 19:58:55 10° NE
OE (NEXTSAT) 4.3 19:51:42 10° WNW 19:55:14 87° SSW 19:58:09 14° ESE
USA 229 DEB 3.8 19:48:14 10° NNW 19:55:27 77° NE 20:02:47 10° SE
USA 229 3.8 19:48:20 10° NNW 19:55:33 76° NE 20:02:53 10° SE
Cosmos 1937 Rocket 3.6 19:50:33 10° NNW 19:55:49 60° ENE 20:01:00 10° SSE
Cosmos 2181 Rocket 3.9 19:52:22 10° N 19:58:36 74° E 20:04:43 10° SSE
Cosmos 1340 Rocket 2.8 19:54:49 10° N 19:58:53 79° E 20:02:58 10° SSE
Cosmos 1271 Rocket 3.5 19:59:10 10° SSW 20:02:50 54° W 20:06:35 10° N
NOSS 3-1 (C) 4.3 20:02:51 10° NNW 20:10:17 55° NE 20:17:12 15° SE
HJ-1C 3.3 20:07:52 10° SSE 20:11:10 65° ENE 20:14:30 10° N
Cosmos 1356 Rocket 3.8 20:08:54 10° N 20:13:00 42° ENE 20:16:30 13° SE
SL-08 ROCKET BODY 4.3 20:08:02 10° S 20:13:53 80° E 20:19:50 10° N
Cosmos 1763 Rocket 3.4 20:11:02 10° SSW 20:16:07 88° ESE 20:21:18 10° NNE
Cosmos 1378 3.1 20:12:33 10° N 20:16:21 88° E 20:20:07 10° S
Cosmos 2074 Rocket 4.0 20:10:37 10° S 20:16:40 59° E 20:22:45 10° NNE
Thor Agena Rocket 4.3 20:14:05 10° N 20:19:14 56° WNW 20:24:18 10° SSW
CZ-2D R/B 3.4 20:16:53 17° SE 20:19:35 47° ENE 20:23:16 10° N
Cosmos 540 Rocket 3.9 20:18:04 10° SSE 20:22:40 35° E 20:27:17 10° NE
Cosmos 1758 Rocket 4.3 20:18:38 10° NNW 20:23:02 57° W 20:27:25 10° S
Cosmos 1544 3.5 20:23:43 24° SE 20:25:17 37° E 20:28:39 10° NNE
Resurs 1-3 3.9 20:24:24 23° SE 20:26:48 45° ENE 20:31:00 10° N
SJ-6B 3.1 20:23:33 10° S 20:27:36 69° W 20:31:34 10° NNW
Meteor 1-24 Rocket 3.8 20:23:48 10° N 20:29:46 63° ENE 20:35:31 10° SSE
Cosmos 304 Rocket 3.6 20:25:22 10° SSW 20:30:08 81° ESE 20:34:57 10° NNE
Cosmos 482 Debris 3.9 20:28:10 10° WNW 20:31:47 53° SW 20:32:22 41° S
Spot 2 Rocket 3.5 20:35:49 24° SE 20:38:47 58° ENE 20:43:45 10° N
Cosmos 836 Rocket 4.5 20:36:03 10° S 20:41:13 58° ESE 20:46:24 10° NNE
GEOS 3 Rocket 3.8 20:37:38 10° NE 20:42:53 51° ESE 20:48:05 10° SSW
Resurs 01 Rocket 1.5 20:40:30 25° SSE 20:43:04 75° ENE 20:47:30 10° N
Nadezhda 3 Rocket 4.3 20:39:00 10° N 20:45:03 45° ENE 20:47:19 33° SE
Milstar 3 Cent rocket 3.6 20:42:37 10° SSW 20:45:32 17° SSE 20:45:32 17° SSE
USA 186 3.8 20:51:12 16° N 20:51:12 16° N 20:51:48 10° N
Cosmos 2184 Rocket 4.1 20:44:40 10° S 20:50:57 78° W 20:57:20 10° N
FALCON 9 R/B 2.3 20:48:42 10° WSW 20:52:00 52° S 20:53:49 38° ESE
Cosmos 1943 Rocket 3.8 20:47:13 10° NW 20:52:08 33° WSW 20:57:04 10° SSW
GP-B 3.0 20:48:36 10° N 20:53:02 66° E 20:54:02 49° SSE
MOS 1-B Rocket 3.9 20:52:11 18° SSE 20:57:04 81° ENE 21:02:50 10° NNW
Cosmos 1610 Rocket 4.4 20:53:11 10° S 20:59:32 86° E 21:05:58 10° N
Cosmos 1125 Rocket 3.5 20:57:08 10° NNW 21:02:24 63° ENE 21:03:09 56° ESE
Cosmos 1812 Rocket 3.5 21:04:33 42° S 21:06:02 89° E 21:10:31 10° N
H-2A R/B 4.3 21:11:13 10° NNE 21:11:13 10° NNE 21:11:21 10° NNE
Envisat 3.1 21:08:43 35° S 21:10:52 76° WSW 21:15:59 10° NNW
Cosmos 1939 Rocket 3.7 21:18:19 43° NNW 21:18:19 43° NNW 21:21:01 10° NNW
COSMOS 2406 3.6 21:13:10 10° SSW 21:18:48 64° WNW 21:24:30 10° NNE
Meteor 1-21 Rocket 4.3 21:14:04 10° N 21:19:25 58° ENE 21:19:25 58° ENE
Cosmos 372 Rocket 3.8 21:15:50 10° NNW 21:21:06 82° ENE 21:21:07 82° ENE
Cosmos 962 Rocket 4.5 21:35:23 47° SSW 21:37:25 85° W 21:43:49 10° N
ATLAS 2AS CENTAUR R/B 3.7 21:34:39 10° NNW 21:41:57 36° NE 21:42:18 36° NE
NOSS 3-1 (A) 4.5 21:43:26 10° NW 21:51:02 57° WSW 21:53:33 43° SSW
Cosmos 1980 Rocket 4.4 22:39:38 10° N 22:41:06 18° N 22:41:06 18° N
ATLAS 2AS CENTAUR R/B 4.3 23:25:38 10° NW 23:29:43 32° NW 23:29:43 32° NW
